TimeMDT,TemperatureF,Dew PointF,Humidity,Sea Level PressureIn,VisibilityMPH,Wind Direction,Wind SpeedMPH,Gust SpeedMPH,PrecipitationIn,Events,Conditions,WindDirDegrees,DateUTC
12:16 AM,62.2,25.3,25,29.64,10.0,SW,8.1,-,N/A,,Clear,230,2013-04-30 06:16:00
12:36 AM,65.5,21.2,18,29.65,10.0,SW,9.2,-,N/A,,Clear,230,2013-04-30 06:36:00
12:56 AM,66.9,19.4,16,29.64,10.0,South,9.2,-,N/A,,Clear,190,2013-04-30 06:56:00
1:16 AM,64.9,21.4,19,29.65,10.0,SSW,8.1,-,N/A,,Clear,210,2013-04-30 07:16:00
1:36 AM,64.9,21.6,19,29.64,10.0,SSW,4.6,-,N/A,,Clear,210,2013-04-30 07:36:00
1:56 AM,59.5,25.7,27,29.64,10.0,WNW,4.6,-,N/A,,Clear,300,2013-04-30 07:56:00
2:16 AM,61.3,25.2,25,29.64,10.0,Calm,Calm,-,N/A,,Clear,0,2013-04-30 08:16:00
2:36 AM,59.0,26.1,28,29.64,10.0,Calm,Calm,-,N/A,,Clear,0,2013-04-30 08:36:00
2:56 AM,61.2,24.3,24,29.64,10.0,ESE,4.6,-,N/A,,Clear,110,2013-04-30 08:56:00
3:16 AM,61.2,25.2,25,29.64,10.0,East,5.8,-,N/A,,Clear,100,2013-04-30 09:16:00
3:36 AM,59.5,25.7,27,29.64,10.0,East,9.2,-,N/A,,Clear,100,2013-04-30 09:36:00
3:56 AM,57.4,26.6,31,29.64,10.0,ESE,6.9,-,N/A,,Clear,110,2013-04-30 09:56:00
4:16 AM,56.8,25.7,30,29.65,10.0,SE,3.5,-,N/A,,Clear,140,2013-04-30 10:16:00
4:36 AM,54.9,26.2,33,29.66,10.0,SE,3.5,-,N/A,,Clear,130,2013-04-30 10:36:00
4:56 AM,56.5,24.8,30,29.67,10.0,East,3.5,-,N/A,,Clear,90,2013-04-30 10:56:00
5:16 AM,56.5,26.2,31,29.71,10.0,ENE,21.9,32.2,N/A,,Clear,60,2013-04-30 11:16:00
5:36 AM,44.6,34.7,68,29.73,10.0,ENE,12.7,23.0,N/A,,Clear,70,2013-04-30 11:36:00
5:56 AM,42.8,34.7,73,29.76,10.0,ENE,10.4,19.6,N/A,,Clear,70,2013-04-30 11:56:00
6:16 AM,41.9,34.7,76,29.80,10.0,NE,5.8,-,N/A,,Clear,40,2013-04-30 12:16:00
6:36 AM,41.9,34.9,76,29.83,10.0,NE,4.6,-,N/A,,Scattered Clouds,50,2013-04-30 12:36:00
6:56 AM,42.3,34.9,75,29.84,10.0,Calm,Calm,-,N/A,,Scattered Clouds,0,2013-04-30 12:56:00
7:16 AM,42.4,34.2,72,29.85,10.0,ENE,4.6,-,N/A,,Scattered Clouds,60,2013-04-30 13:16:00
7:36 AM,43.0,33.8,70,29.85,10.0,Calm,Calm,-,N/A,,Scattered Clouds,0,2013-04-30 13:36:00
7:56 AM,44.2,33.1,65,29.85,10.0,Calm,Calm,-,N/A,,Clear,0,2013-04-30 13:56:00
8:16 AM,44.4,33.3,65,29.84,10.0,South,4.6,-,N/A,,Clear,170,2013-04-30 14:16:00
8:36 AM,46.0,32.9,60,29.84,10.0,SE,5.8,-,N/A,,Clear,130,2013-04-30 14:36:00
8:56 AM,47.5,33.1,57,29.85,10.0,ESE,3.5,-,N/A,,Clear,110,2013-04-30 14:56:00
9:16 AM,49.5,34.2,56,29.85,10.0,SSE,6.9,-,N/A,,Clear,160,2013-04-30 15:16:00
9:36 AM,50.0,34.0,54,29.84,10.0,ESE,4.6,-,N/A,,Clear,120,2013-04-30 15:36:00
9:56 AM,50.9,34.7,54,29.83,10.0,East,9.2,-,N/A,,Clear,90,2013-04-30 15:56:00
10:16 AM,51.3,34.9,54,29.83,10.0,ESE,8.1,-,N/A,,Clear,110,2013-04-30 16:16:00
10:36 AM,51.3,35.1,54,29.83,10.0,ESE,10.4,-,N/A,,Clear,110,2013-04-30 16:36:00
10:56 AM,50.4,35.6,57,29.84,10.0,East,8.1,-,N/A,,Scattered Clouds,100,2013-04-30 16:56:00
11:16 AM,50.7,35.8,57,29.83,10.0,ENE,8.1,-,N/A,,Clear,70,2013-04-30 17:16:00
11:36 AM,50.9,36.0,57,29.83,10.0,East,6.9,-,N/A,,Scattered Clouds,80,2013-04-30 17:36:00
11:56 AM,51.3,36.0,56,29.82,10.0,ENE,8.1,-,N/A,,Scattered Clouds,70,2013-04-30 17:56:00
12:16 PM,52.7,36.7,55,29.82,10.0,ESE,5.8,-,N/A,,Clear,120,2013-04-30 18:16:00
12:36 PM,53.6,36.5,52,29.82,10.0,East,6.9,-,N/A,,Scattered Clouds,100,2013-04-30 18:36:00
12:56 PM,52.5,36.3,54,29.82,10.0,Calm,Calm,-,N/A,,Scattered Clouds,0,2013-04-30 18:56:00
1:16 PM,53.8,36.3,52,29.82,10.0,ENE,4.6,-,N/A,,Scattered Clouds,70,2013-04-30 19:16:00
1:36 PM,54.7,36.9,51,29.81,10.0,East,5.8,-,N/A,,Scattered Clouds,80,2013-04-30 19:36:00
1:56 PM,54.0,37.4,54,29.82,10.0,ENE,3.5,-,N/A,,Clear,70,2013-04-30 19:56:00
2:16 PM,54.1,37.4,53,29.81,10.0,East,9.2,-,N/A,,Scattered Clouds,100,2013-04-30 20:16:00
2:36 PM,54.1,37.6,54,29.83,10.0,NE,5.8,-,N/A,,Mostly Cloudy,50,2013-04-30 20:36:00
2:56 PM,53.6,38.1,56,29.83,10.0,NE,9.2,-,N/A,,Overcast,40,2013-04-30 20:56:00
3:16 PM,55.9,37.9,51,29.82,10.0,East,8.1,-,N/A,,Mostly Cloudy,90,2013-04-30 21:16:00
3:36 PM,54.1,37.6,54,29.82,10.0,NE,3.5,-,N/A,,Mostly Cloudy,50,2013-04-30 21:36:00
3:53 PM,55.0,39.0,55,29.81,10.0,ESE,6.9,-,N/A,,Mostly Cloudy,110,2013-04-30 21:53:00
4:56 PM,54.3,36.3,51,29.82,10.0,ESE,11.5,17.3,N/A,,Unknown,120,2013-04-30 22:56:00
5:16 PM,54.1,35.8,50,29.82,10.0,ESE,12.7,-,N/A,,Mostly Cloudy,120,2013-04-30 23:16:00
5:36 PM,54.9,35.8,49,29.80,10.0,ESE,12.7,-,N/A,,Scattered Clouds,110,2013-04-30 23:36:00
5:56 PM,54.5,35.2,48,29.82,10.0,East,10.4,-,N/A,,Clear,100,2013-04-30 23:56:00
6:16 PM,55.0,35.4,48,29.82,10.0,ESE,10.4,-,N/A,,Clear,110,2013-05-01 00:16:00
6:36 PM,53.2,35.4,51,29.83,10.0,ENE,6.9,-,N/A,,Clear,70,2013-05-01 00:36:00
6:56 PM,52.9,35.2,51,29.86,10.0,ENE,8.1,-,N/A,,Mostly Cloudy,70,2013-05-01 00:56:00
7:16 PM,52.9,35.6,52,29.86,10.0,NE,6.9,-,N/A,,Overcast,50,2013-05-01 01:16:00
7:36 PM,52.3,35.6,53,29.86,10.0,NNE,5.8,-,N/A,,Overcast,30,2013-05-01 01:36:00
8:16 PM,52.2,33.8,50,29.89,10.0,NE,11.5,-,N/A,,Overcast,50,2013-05-01 02:16:00
8:36 PM,51.8,33.6,50,29.91,10.0,NNE,11.5,-,N/A,,Overcast,30,2013-05-01 02:36:00
8:56 PM,44.2,37.9,79,29.97,10.0,NNE,19.6,35.7,N/A,Rain,Light Rain,20,2013-05-01 02:56:00
9:16 PM,40.3,38.5,93,29.98,5.0,North,20.7,34.5,N/A,Rain,Rain,10,2013-05-01 03:16:00
9:36 PM,39.9,38.7,95,29.98,10.0,NNE,18.4,24.2,N/A,Rain,Light Rain,20,2013-05-01 03:36:00
9:56 PM,39.2,37.8,95,30.00,10.0,North,19.6,26.5,N/A,Rain,Light Rain,10,2013-05-01 03:56:00
10:16 PM,39.4,38.3,96,30.01,10.0,North,17.3,20.7,N/A,Rain,Rain,10,2013-05-01 04:16:00
10:36 PM,39.0,37.8,95,30.02,10.0,North,10.4,19.6,N/A,Rain,Light Rain,350,2013-05-01 04:36:00
11:16 PM,37.8,36.9,97,30.03,10.0,NW,4.6,-,N/A,Rain,Rain,320,2013-05-01 05:16:00
11:36 PM,37.8,36.9,97,30.04,10.0,WNW,4.6,-,N/A,Rain,Rain,300,2013-05-01 05:36:00
11:56 PM,37.2,36.3,97,30.04,10.0,WNW,4.6,-,N/A,Rain,Light Rain,300,2013-05-01 05:56:00